Regional Weather Roundup
Issued by NWS

Home | Current Version | Previous Version | Graphics & Text | Print | Product List | Glossary On
Versions: 1 2 3 4 5 6 7 8 9 10 11 12 13 14 15 16 17 18 19 20 21 22 23 24 25 26 27 28 29 30 31 32 33 34 35 36 37 38 39 40 41 42 43 44 45 46 47 48 49 50
546
ASUS44 KJAN 211703
RWRMS

MISSISSIPPI HOURLY WEATHER ROUNDUP
NATIONAL WEATHER SERVICE JACKSON MS
1200 PM CDT TUE OCT 21 2014

NOTE: "FAIR: INDICATES FEW OR NO CLOUDS BELOW 12,000 FEET WITH NO
SIGNIFICANT WEATHER AND/OR OBSTRUCTIONS TO VISIBILITY.

MSZ001>002-007>008-010>013-018>021-025>028-034>036-211800-
NORTHWEST MISSISSIPPI

CITY           SKY/WX    TMP DP  RH WIND       PRES   REMARKS
CLARKSDALE     FAIR      72  59  64 CALM      30.11S
CLEVELAND      FAIR      74  63  69 CALM      30.09F
GREENWOOD      SUNNY     73  59  61 SW3       30.09F
GREENVILLE     SUNNY     75  60  59 W3        30.09F
GRENADA          N/A    N/A N/A N/A MISG        N/A
OXFORD         FAIR      72  54  53 CALM      30.11S
TUNICA         SUNNY     72  52  49 CALM      30.11S
$$

MSZ003>006-009-014>017-022>024-029>033-037>039-211800-
NORTHEAST MISSISSIPPI

CITY           SKY/WX    TMP DP  RH WIND       PRES   REMARKS
COLUMBUS AFB   SUNNY     73  58  60 VRB1      30.07F
CORINTH        FAIR      72  48  43 VRB7G14   30.08F
GOLDN TRIANGLE SUNNY     75  57  53 NE5       30.07F
STARKVILLE     FAIR      72  59  64 CALM      30.07F
TUPELO         SUNNY     71  54  54 NE6       30.08S
$$

MSZ040-058-211800-
CENTRAL MISSISSIPPI

CITY           SKY/WX    TMP DP  RH WIND       PRES   REMARKS
JACKSON INTL   SUNNY     74  53  48 N7        30.09F
JACKSON HAWKNS   N/A    N/A N/A N/A MISG      30.10F
MERIDIAN KEY   NOT AVBL
MERIDIAN NAS   MOSUNNY   73  52  47 CALM      30.08F
RAYMOND        FAIR      73  68  83 N3        30.10F
VICKSBURG      SUNNY     75  55  49 NE6       30.10F
$$

MSZ059>079-211800-
SOUTH MISSISSIPPI

CITY           SKY/WX    TMP DP  RH WIND       PRES   REMARKS
BROOKHAVEN     FAIR      72  54  53 NW3       30.11F
HATTIESBURG    SUNNY     75  53  46 VRB6      30.08F
MCCOMB         SUNNY     74  49  41 VRB6      30.09S
NATCHEZ        SUNNY     73  54  49 N6        30.11F
PINE BELT      SUNNY     73  39  29 N7        30.09F
$$

MSZ080>082-211800-
COASTAL MISSISSIPPI

CITY           SKY/WX    TMP DP  RH WIND       PRES   REMARKS
BILOXI         SUNNY     76  52  43 NE7       30.04F
PASCAGOULA     SUNNY     77  53  43 NE9       30.04F
GULFPORT       SUNNY     76  52  43 N9        30.04F
$$



USA.gov is the U.S. government's official web portal to all federal, state and local government web resources and services.